Location: Ernsee
(50.8780°N, 12.0389°E)
Time: 16:47:22
(UTC+00:00)

CZ-2C R/B - Pass Details

Date: 20 January 2020
Orbit: 640 x 705 km, 98.4° (Epoch: 18 February)

Event Time Altitude Azimuth Distance (km) Brightness Sun altitude
Rises 06:04:12 0° 172° (S) 3,029 7.5 -9.3°
Reaches altitude 10° 06:06:28 10° 175° (S) 2,109 6.7 -9.0°
Maximum altitude 06:11:02 65° 257° (WSW) 739 3.7 -8.3°
Drops below altitude 10° 06:15:33 10° 340° (NNW) 2,084 5.9 -7.6°
Sets 06:17:47 0° 343° (NNW) 2,992 6.7 -7.3°
